Volver al catálogo

S-Net D

S-NET D

ActivoRadioaficionadoSSO
NORAD 43186·PAYLOAD·🇩🇪 Germany

Lanzado Feb 1, 2018 desde Vostochny Cosmodrome

Loading…

Próximos Pases (próximas 24 horas)

TLE

ActualizadoSource: AMSAT

Época: Sep 13, 2026, 17:11 UTC

1 43186U 18014G   26256.71615829  .00003337  00000-0  17035-3 0  9991
2 43186  97.5254 160.9482 0009835  74.6778 285.5542 15.17369169472181

Sigue S-Net D en tiempo real con AllMySat

Download on the App Store